Weather in Pakxe

Laos     15°11′00″N   105°45′43″E
temp.,
°C
wind,
m/s
gust,
m/s
humid.,
%
clouds,
%
prec.,
mm/h
press.,
hPa
HPBL,
m
14 june, mon
mon1401:00+23sse129486 1.8 100835
04:00+23sse239596 0.3 1008108
07:00+22sse2395100 0.5 1009134
10:00+27sse247934 0.8 1009492
13:00+29ssw467177 3.3 10071120
16:00+28s3677100 3.1 1005339
19:00+25sse228546 3.7 100621
22:00+24ese1188100 0.4 100818
15 june, tue
tue1501:00+23sse1190100 0.4 100716
04:00+23sse1294100 0.4 100642
07:00+24sse1291100 0.4 1008144
10:00+28sw467196 0.4 10091132
13:00+28wsw3677100 2.1 1007702
16:00+28sw477955 5.0 1005982
19:00+25ssw239081 11.4 100765
22:00+23s119436 1.9 100913
16 june, wed
wed1601:00+23sse119572 2.4 100816
04:00+23se119588 0.1 100713
07:00+25sse118975 0.1 1009177
10:00+28sw357374 1.4 10091131
13:00+30wsw356882 1.9 10071171
16:00+30sw346889 0.9 1006877
19:00+26s228544 2.1 100819
22:00+24sse119180 2.4 101014
17 june, thu
thu1701:00+23sse1193100 3.2 100914
04:00+23s119758 6.6 100919
07:00+24se119566 9.5 101196
10:00+28sw237543 0.8 1010856
13:00+30w356598 1.7 10081463
16:00+29sw247498 4.3 1007666
19:00+25sse1287100 5.6 100818
22:00+25sse1190100 0.0 101013
18 june, fri
fri1801:00+24se119286 0.0 100913
04:00+23se119437 0.5 100915
07:00+25sse129157 0.8 1010162
10:00+29wsw346842 0.1 10101216
13:00+31sw246293 0.2 10081460
16:00+30sse237393 0.3 1006259
19:00+27s118098 0.5 100714
22:00+26sse228356 0.0 100823